N23017 KPBI-KJAX

Flight info

Callsign N23017
Flight time 2h 14m
Altitude 6500
Route CLEFF T208 WIXED/N0112F020 T208 VALKA/N0112F040
Aircraft C172/L-SFG/C

Departure

Time 2026-04-12 02:09
Airport Palm Beach International Airport (KPBI)

Arrival

Time 2026-04-12 04:23
Airport Jacksonville International Airport (KJAX)
Time Latitude Longitude Altitude Speed Heading
2026-04-12 01:34 26.68690 -80.08998 23 ft 0 kts 92°
2026-04-12 01:56 26.68691 -80.08995 23 ft 2 kts 51°
2026-04-12 01:57 26.68697 -80.09008 23 ft 5 kts 261°
2026-04-12 01:57 26.68695 -80.09058 23 ft 8 kts 267°
2026-04-12 01:57 26.68648 -80.09089 22 ft 12 kts 183°
2026-04-12 01:57 26.68581 -80.09091 20 ft 6 kts 186°
2026-04-12 01:58 26.68544 -80.09094 20 ft 5 kts 182°
2026-04-12 01:58 26.68513 -80.09095 20 ft 4 kts 181°
2026-04-12 01:58 26.68492 -80.09096 19 ft 4 kts 181°
2026-04-12 01:58 26.68429 -80.09132 20 ft 16 kts 231°
2026-04-12 01:59 26.68364 -80.09152 21 ft 10 kts 193°
2026-04-12 01:59 26.68361 -80.09208 21 ft 7 kts 272°
2026-04-12 01:59 26.68364 -80.09275 21 ft 9 kts 274°
2026-04-12 01:59 26.68367 -80.09337 21 ft 7 kts 272°
2026-04-12 02:00 26.68368 -80.09372 21 ft 0 kts 271°
2026-04-12 02:01 26.68368 -80.09379 21 ft 4 kts 272°
2026-04-12 02:01 26.68369 -80.09395 21 ft 0 kts 274°
2026-04-12 02:02 26.68372 -80.09446 22 ft 7 kts 270°
2026-04-12 02:02 26.68375 -80.09535 25 ft 12 kts 272°
2026-04-12 02:02 26.68378 -80.09611 27 ft 8 kts 275°
2026-04-12 02:02 26.68381 -80.09655 28 ft 4 kts 273°
2026-04-12 02:03 26.68383 -80.09683 28 ft 5 kts 273°
2026-04-12 02:03 26.68384 -80.09756 28 ft 11 kts 272°
2026-04-12 02:03 26.68388 -80.09834 27 ft 9 kts 273°
2026-04-12 02:03 26.68391 -80.09896 27 ft 7 kts 274°
2026-04-12 02:04 26.68393 -80.09954 28 ft 10 kts 272°
2026-04-12 02:04 26.68397 -80.10064 28 ft 18 kts 273°
2026-04-12 02:04 26.68403 -80.10183 27 ft 13 kts 275°
2026-04-12 02:04 26.68408 -80.10278 25 ft 12 kts 272°
2026-04-12 02:05 26.68412 -80.10368 22 ft 11 kts 271°
2026-04-12 02:05 26.68416 -80.10453 21 ft 10 kts 274°
2026-04-12 02:05 26.68418 -80.10527 20 ft 9 kts 274°
2026-04-12 02:05 26.68422 -80.10601 19 ft 10 kts 276°
2026-04-12 02:06 26.68425 -80.10686 18 ft 12 kts 272°
2026-04-12 02:06 26.68398 -80.10734 17 ft 0 kts 210°
2026-04-12 02:07 26.68335 -80.10729 18 ft 15 kts 147°
2026-04-12 02:07 26.68311 -80.10593 20 ft 33 kts 93°
2026-04-12 02:07 26.68294 -80.10201 27 ft 65 kts 92°
2026-04-12 02:07 26.68265 -80.09632 86 ft 77 kts 94°
2026-04-12 02:08 26.68234 -80.09016 179 ft 83 kts 93°
2026-04-12 02:08 26.68192 -80.08346 247 ft 88 kts 91°
2026-04-12 02:08 26.68186 -80.07676 367 ft 86 kts 89°
2026-04-12 02:08 26.68115 -80.07013 477 ft 86 kts 92°
2026-04-12 02:09 26.68061 -80.06371 591 ft 83 kts 94°
2026-04-12 02:09 26.68014 -80.05726 754 ft 84 kts 92°
2026-04-12 02:09 26.67989 -80.05060 845 ft 86 kts 90°
2026-04-12 02:09 26.67949 -80.04412 948 ft 83 kts 91°
2026-04-12 02:10 26.67900 -80.03762 993 ft 85 kts 91°
2026-04-12 02:10 26.67847 -80.03111 1026 ft 83 kts 93°
2026-04-12 02:10 26.67763 -80.02466 1069 ft 84 kts 96°
2026-04-12 02:10 26.67670 -80.01815 1157 ft 85 kts 94°
2026-04-12 02:11 26.67577 -80.01171 1255 ft 85 kts 94°
2026-04-12 02:11 26.67513 -80.00515 1330 ft 83 kts 76°
2026-04-12 02:11 26.67988 -80.00213 1367 ft 98 kts 360°
2026-04-12 02:11 26.68637 -80.00475 1441 ft 98 kts 354°
2026-04-12 02:12 26.69282 -80.00718 1516 ft 98 kts 353°
2026-04-12 02:12 26.69936 -80.00936 1537 ft 98 kts 355°
2026-04-12 02:12 26.70375 -80.01057 1568 ft 98 kts 358°
2026-04-12 02:12 26.71038 -80.01236 1597 ft 97 kts 356°
2026-04-12 02:13 26.71689 -80.01416 1623 ft 95 kts
2026-04-12 02:13 26.72334 -80.01591 1658 ft 95 kts
2026-04-12 02:13 26.72976 -80.01766 1740 ft 94 kts
2026-04-12 02:13 26.73611 -80.01941 1816 ft 94 kts 359°
2026-04-12 02:14 26.74242 -80.02116 1872 ft 93 kts 359°
2026-04-12 02:14 26.74867 -80.02293 1894 ft 93 kts 356°
2026-04-12 02:14 26.75497 -80.02470 1897 ft 96 kts 359°
2026-04-12 02:14 26.76178 -80.02644 1911 ft 103 kts
2026-04-12 02:15 26.76872 -80.02811 1990 ft 104 kts
2026-04-12 02:15 26.77588 -80.02981 2086 ft 105 kts 360°
2026-04-12 02:15 26.78314 -80.03167 2174 ft 108 kts 354°
2026-04-12 02:15 26.79034 -80.03382 2214 ft 111 kts 357°
2026-04-12 02:16 26.79799 -80.03594 2188 ft 115 kts 359°
2026-04-12 02:16 26.80585 -80.03806 2215 ft 117 kts 359°
2026-04-12 02:16 26.81378 -80.04025 2249 ft 120 kts 352°
2026-04-12 02:16 26.82042 -80.04677 2272 ft 138 kts 308°
2026-04-12 02:17 26.82641 -80.05428 2271 ft 123 kts 351°
2026-04-12 02:17 26.83439 -80.05457 2291 ft 117 kts
2026-04-12 02:17 26.84236 -80.05731 2266 ft 120 kts 355°
2026-04-12 02:17 26.85028 -80.06039 2251 ft 121 kts 353°
2026-04-12 02:18 26.85812 -80.06365 2259 ft 120 kts 352°
2026-04-12 02:18 26.86595 -80.06700 2282 ft 121 kts 348°
2026-04-12 02:18 26.87379 -80.07039 2314 ft 121 kts 349°
2026-04-12 02:18 26.88164 -80.07379 2343 ft 121 kts 349°
2026-04-12 02:19 26.88947 -80.07719 2404 ft 120 kts 352°
2026-04-12 02:19 26.89722 -80.08056 2477 ft 120 kts 351°
2026-04-12 02:19 26.90503 -80.08394 2545 ft 121 kts 351°
2026-04-12 02:19 26.91278 -80.08731 2593 ft 121 kts 349°
2026-04-12 02:20 26.92067 -80.09075 2615 ft 121 kts 350°
2026-04-12 02:20 26.92849 -80.09415 2667 ft 120 kts 350°
2026-04-12 02:20 26.93624 -80.09752 2718 ft 119 kts 351°
2026-04-12 02:20 26.94397 -80.10088 2784 ft 119 kts 349°
2026-04-12 02:21 26.95172 -80.10424 2812 ft 120 kts 348°
2026-04-12 02:21 26.95951 -80.10764 2839 ft 120 kts 348°
2026-04-12 02:21 26.96729 -80.11103 2868 ft 120 kts 347°
2026-04-12 02:21 26.97509 -80.11442 2908 ft 120 kts 348°
2026-04-12 02:22 26.98289 -80.11781 2947 ft 120 kts 348°
2026-04-12 02:22 26.99069 -80.12121 2988 ft 121 kts 349°
2026-04-12 02:22 26.99856 -80.12463 3031 ft 121 kts 346°
2026-04-12 02:22 27.00642 -80.12806 3085 ft 121 kts 348°
2026-04-12 02:23 27.01425 -80.13147 3126 ft 121 kts 348°
2026-04-12 02:23 27.02208 -80.13487 3157 ft 121 kts 349°
2026-04-12 02:23 27.02995 -80.13831 3178 ft 122 kts 349°
2026-04-12 02:23 27.03786 -80.14175 3203 ft 122 kts 348°
2026-04-12 02:24 27.04575 -80.14520 3239 ft 122 kts 347°
2026-04-12 02:24 27.05361 -80.14862 3249 ft 121 kts 347°
2026-04-12 02:24 27.06144 -80.15203 3236 ft 121 kts 350°
2026-04-12 02:24 27.06916 -80.15541 3237 ft 121 kts 348°
2026-04-12 02:25 27.07702 -80.15883 3266 ft 121 kts 349°
2026-04-12 02:25 27.08491 -80.16228 3294 ft 122 kts 347°
2026-04-12 02:25 27.09280 -80.16571 3296 ft 121 kts 349°
2026-04-12 02:25 27.10066 -80.16915 3314 ft 121 kts 347°
2026-04-12 02:26 27.10852 -80.17257 3336 ft 121 kts 347°
2026-04-12 02:26 27.11638 -80.17601 3360 ft 121 kts 347°
2026-04-12 02:26 27.12426 -80.17944 3375 ft 121 kts 347°
2026-04-12 02:26 27.13213 -80.18289 3374 ft 121 kts 346°
2026-04-12 02:27 27.14000 -80.18633 3379 ft 121 kts 346°
2026-04-12 02:27 27.14786 -80.18975 3397 ft 121 kts 347°
2026-04-12 02:27 27.15566 -80.19315 3419 ft 120 kts 347°
2026-04-12 02:27 27.16349 -80.19658 3440 ft 120 kts 347°
2026-04-12 02:28 27.17129 -80.19999 3459 ft 121 kts 346°
2026-04-12 02:28 27.17915 -80.20342 3466 ft 121 kts 346°
2026-04-12 02:28 27.18701 -80.20685 3478 ft 121 kts 346°
2026-04-12 02:28 27.19479 -80.21025 3501 ft 120 kts 346°
2026-04-12 02:29 27.20258 -80.21366 3528 ft 120 kts 346°
2026-04-12 02:29 27.21034 -80.21706 3555 ft 120 kts 346°
2026-04-12 02:29 27.21813 -80.22046 3553 ft 120 kts 346°
2026-04-12 02:29 27.22594 -80.22387 3567 ft 120 kts 346°
2026-04-12 02:30 27.23377 -80.22730 3591 ft 121 kts 347°
2026-04-12 02:30 27.24158 -80.23071 3620 ft 120 kts 346°
2026-04-12 02:30 27.24928 -80.23409 3618 ft 120 kts 346°
2026-04-12 02:30 27.25717 -80.23753 3626 ft 120 kts 346°
2026-04-12 02:31 27.26490 -80.24091 3644 ft 121 kts 347°
2026-04-12 02:31 27.27280 -80.24439 3672 ft 120 kts 346°
2026-04-12 02:31 27.28056 -80.24777 3691 ft 120 kts 346°
2026-04-12 02:31 27.28832 -80.25117 3713 ft 120 kts 346°
2026-04-12 02:32 27.29605 -80.25456 3747 ft 121 kts 346°
2026-04-12 02:32 27.30393 -80.25802 3757 ft 122 kts 346°
2026-04-12 02:32 27.31182 -80.26147 3790 ft 121 kts 346°
2026-04-12 02:32 27.31967 -80.26490 3826 ft 121 kts 346°
2026-04-12 02:33 27.32755 -80.26835 3853 ft 122 kts 345°
2026-04-12 02:33 27.33544 -80.27182 3864 ft 122 kts 346°
2026-04-12 02:33 27.34334 -80.27528 3884 ft 122 kts 346°
2026-04-12 02:33 27.35130 -80.27877 3908 ft 121 kts 346°
2026-04-12 02:34 27.35907 -80.28219 3937 ft 121 kts 345°
2026-04-12 02:34 27.36689 -80.28561 3967 ft 120 kts 345°
2026-04-12 02:34 27.37472 -80.28904 3995 ft 121 kts 346°
2026-04-12 02:34 27.38255 -80.29247 4020 ft 121 kts 346°
2026-04-12 02:35 27.39038 -80.29592 4044 ft 121 kts 346°
2026-04-12 02:35 27.39816 -80.29934 4094 ft 119 kts 346°
2026-04-12 02:35 27.40579 -80.30268 4151 ft 117 kts 346°
2026-04-12 02:35 27.41338 -80.30601 4195 ft 117 kts 346°
2026-04-12 02:36 27.42098 -80.30935 4239 ft 117 kts 345°
2026-04-12 02:36 27.42853 -80.31266 4298 ft 116 kts 346°
2026-04-12 02:36 27.43602 -80.31595 4327 ft 115 kts 346°
2026-04-12 02:36 27.44353 -80.31924 4364 ft 116 kts 345°
2026-04-12 02:37 27.45109 -80.32256 4408 ft 117 kts 346°
2026-04-12 02:37 27.45866 -80.32589 4456 ft 116 kts 345°
2026-04-12 02:37 27.46608 -80.32915 4493 ft 116 kts 345°
2026-04-12 02:37 27.47361 -80.33246 4536 ft 116 kts 345°
2026-04-12 02:38 27.48118 -80.33579 4577 ft 117 kts 345°
2026-04-12 02:38 27.48873 -80.33911 4618 ft 116 kts 345°
2026-04-12 02:38 27.49625 -80.34242 4662 ft 116 kts 345°
2026-04-12 02:38 27.50379 -80.34573 4701 ft 116 kts 345°
2026-04-12 02:39 27.51134 -80.34904 4743 ft 117 kts 345°
2026-04-12 02:39 27.51894 -80.35239 4799 ft 117 kts 345°
2026-04-12 02:39 27.52653 -80.35573 4834 ft 117 kts 346°
2026-04-12 02:39 27.53413 -80.35908 4870 ft 117 kts 346°
2026-04-12 02:40 27.54175 -80.36243 4899 ft 118 kts 345°
2026-04-12 02:40 27.54937 -80.36579 4942 ft 118 kts 345°
2026-04-12 02:40 27.55699 -80.36914 4989 ft 117 kts 345°
2026-04-12 02:40 27.56463 -80.37250 5020 ft 118 kts 345°
2026-04-12 02:41 27.57230 -80.37588 5061 ft 118 kts 346°
2026-04-12 02:41 27.57984 -80.37920 5106 ft 118 kts 345°
2026-04-12 02:41 27.58747 -80.38256 5147 ft 118 kts 345°
2026-04-12 02:41 27.59516 -80.38594 5184 ft 118 kts 345°
2026-04-12 02:42 27.60282 -80.38932 5223 ft 118 kts 345°
2026-04-12 02:42 27.61045 -80.39268 5257 ft 118 kts 345°
2026-04-12 02:42 27.61806 -80.39603 5294 ft 118 kts 345°
2026-04-12 02:43 27.63334 -80.40277 5375 ft 118 kts 345°
2026-04-12 02:43 27.64099 -80.40615 5412 ft 118 kts 345°
2026-04-12 02:43 27.64863 -80.40951 5453 ft 118 kts 345°
2026-04-12 02:43 27.65627 -80.41289 5491 ft 118 kts 345°
2026-04-12 02:44 27.66381 -80.41621 5523 ft 118 kts 345°
2026-04-12 02:44 27.67152 -80.41961 5558 ft 117 kts 345°
2026-04-12 02:44 27.67902 -80.42292 5591 ft 117 kts 345°
2026-04-12 02:44 27.68660 -80.42627 5619 ft 117 kts 346°
2026-04-12 02:45 27.69422 -80.42963 5644 ft 118 kts 345°
2026-04-12 02:45 27.70185 -80.43300 5680 ft 117 kts 345°
2026-04-12 02:45 27.70943 -80.43634 5711 ft 117 kts 345°
2026-04-12 02:45 27.71699 -80.43968 5740 ft 117 kts 346°
2026-04-12 02:46 27.72455 -80.44302 5780 ft 116 kts 345°
2026-04-12 02:46 27.73207 -80.44634 5817 ft 116 kts 345°
2026-04-12 02:46 27.73958 -80.44966 5840 ft 116 kts 346°
2026-04-12 02:46 27.74707 -80.45297 5879 ft 116 kts 346°
2026-04-12 02:47 27.75458 -80.45629 5913 ft 115 kts 346°
2026-04-12 02:47 27.76204 -80.45959 5941 ft 115 kts 345°
2026-04-12 02:47 27.76951 -80.46288 5964 ft 115 kts 347°
2026-04-12 02:47 27.77701 -80.46620 5977 ft 115 kts 346°
2026-04-12 02:48 27.78448 -80.46950 5988 ft 115 kts 346°
2026-04-12 02:48 27.79187 -80.47277 6002 ft 116 kts 346°
2026-04-12 02:48 27.79939 -80.47610 6027 ft 116 kts 346°
2026-04-12 02:48 27.80688 -80.47941 6050 ft 115 kts 346°
2026-04-12 02:49 27.81435 -80.48271 6061 ft 115 kts 347°
2026-04-12 02:49 27.82185 -80.48604 6069 ft 116 kts 347°
2026-04-12 02:49 27.82934 -80.48935 6091 ft 115 kts 346°
2026-04-12 02:49 27.83680 -80.49266 6113 ft 115 kts 346°
2026-04-12 02:50 27.84425 -80.49595 6119 ft 115 kts 346°
2026-04-12 02:50 27.85172 -80.49925 6129 ft 115 kts 346°
2026-04-12 02:50 27.85910 -80.50252 6152 ft 115 kts 346°
2026-04-12 02:50 27.86662 -80.50585 6174 ft 115 kts 347°
2026-04-12 02:51 27.87396 -80.50910 6187 ft 115 kts 346°
2026-04-12 02:51 27.88136 -80.51239 6196 ft 115 kts 347°
2026-04-12 02:51 27.88865 -80.51563 6232 ft 112 kts 346°
2026-04-12 02:51 27.89589 -80.51883 6272 ft 111 kts 347°
2026-04-12 02:52 27.90303 -80.52199 6312 ft 110 kts 347°
2026-04-12 02:52 27.91009 -80.52512 6345 ft 109 kts 347°
2026-04-12 02:52 27.91713 -80.52824 6360 ft 109 kts 347°
2026-04-12 02:52 27.92418 -80.53136 6377 ft 109 kts 347°
2026-04-12 02:53 27.93125 -80.53449 6402 ft 109 kts 347°
2026-04-12 02:53 27.93829 -80.53762 6420 ft 108 kts 347°
2026-04-12 02:53 27.95232 -80.54385 6471 ft 108 kts 346°
2026-04-12 02:54 27.95931 -80.54695 6500 ft 108 kts 346°
2026-04-12 02:54 27.96628 -80.55004 6528 ft 107 kts 346°
2026-04-12 02:54 27.97330 -80.55315 6536 ft 109 kts 346°
2026-04-12 02:54 27.98034 -80.55627 6540 ft 111 kts 346°
2026-04-12 02:55 27.98753 -80.55947 6536 ft 111 kts 346°
2026-04-12 02:55 27.99476 -80.56268 6536 ft 112 kts 346°
2026-04-12 02:55 28.00204 -80.56592 6539 ft 112 kts 346°
2026-04-12 02:55 28.00936 -80.56917 6540 ft 113 kts 346°
2026-04-12 02:56 28.01669 -80.57243 6545 ft 113 kts 346°
2026-04-12 02:56 28.02403 -80.57569 6544 ft 113 kts 346°
2026-04-12 02:56 28.03138 -80.57895 6545 ft 114 kts 346°
2026-04-12 02:56 28.03875 -80.58223 6544 ft 114 kts 346°
2026-04-12 02:57 28.04613 -80.58551 6538 ft 114 kts 346°
2026-04-12 02:57 28.05350 -80.58879 6542 ft 114 kts 346°
2026-04-12 02:57 28.06076 -80.59202 6539 ft 114 kts 346°
2026-04-12 02:57 28.06814 -80.59529 6541 ft 114 kts 346°
2026-04-12 02:58 28.07554 -80.59858 6546 ft 115 kts 346°
2026-04-12 02:58 28.08300 -80.60190 6544 ft 115 kts 346°
2026-04-12 02:58 28.08791 -80.60409 6545 ft 114 kts 346°
2026-04-12 02:58 28.09530 -80.60738 6543 ft 114 kts 346°
2026-04-12 02:59 28.10268 -80.61066 6542 ft 114 kts 346°
2026-04-12 02:59 28.11006 -80.61395 6544 ft 113 kts 346°
2026-04-12 02:59 28.11739 -80.61720 6541 ft 113 kts 346°
2026-04-12 02:59 28.12472 -80.62047 6541 ft 114 kts 346°
2026-04-12 03:00 28.13208 -80.62375 6543 ft 113 kts 346°
2026-04-12 03:00 28.13945 -80.62702 6540 ft 114 kts 346°
2026-04-12 03:00 28.14670 -80.63025 6540 ft 113 kts 346°
2026-04-12 03:00 28.15405 -80.63353 6540 ft 113 kts 346°
2026-04-12 03:01 28.16138 -80.63680 6541 ft 113 kts 346°
2026-04-12 03:01 28.16869 -80.64006 6539 ft 113 kts 346°
2026-04-12 03:01 28.17599 -80.64331 6539 ft 113 kts 345°
2026-04-12 03:01 28.18329 -80.64656 6538 ft 113 kts 345°
2026-04-12 03:02 28.19061 -80.64982 6539 ft 113 kts 346°
2026-04-12 03:02 28.19794 -80.65308 6539 ft 113 kts 346°
2026-04-12 03:02 28.20528 -80.65636 6539 ft 113 kts 346°
2026-04-12 03:02 28.21261 -80.65963 6539 ft 113 kts 346°
2026-04-12 03:03 28.21984 -80.66286 6537 ft 113 kts 346°
2026-04-12 03:03 28.22719 -80.66614 6539 ft 113 kts 345°
2026-04-12 03:03 28.23453 -80.66941 6538 ft 113 kts 345°
2026-04-12 03:03 28.24187 -80.67269 6537 ft 113 kts 345°
2026-04-12 03:04 28.24921 -80.67596 6541 ft 113 kts 345°
2026-04-12 03:04 28.25652 -80.67923 6541 ft 113 kts 345°
2026-04-12 03:04 28.26381 -80.68247 6539 ft 113 kts 345°
2026-04-12 03:04 28.27110 -80.68573 6538 ft 113 kts 346°
2026-04-12 03:05 28.27842 -80.68900 6542 ft 113 kts 346°
2026-04-12 03:05 28.28572 -80.69226 6542 ft 113 kts 346°
2026-04-12 03:05 28.29304 -80.69553 6542 ft 113 kts 346°
2026-04-12 03:05 28.30035 -80.69880 6542 ft 113 kts 345°
2026-04-12 03:06 28.30770 -80.70208 6540 ft 113 kts 346°
2026-04-12 03:06 28.31502 -80.70535 6540 ft 113 kts 346°
2026-04-12 03:06 28.32236 -80.70863 6541 ft 114 kts 346°
2026-04-12 03:06 28.32971 -80.71192 6541 ft 113 kts 346°
2026-04-12 03:07 28.33694 -80.71515 6544 ft 113 kts 346°
2026-04-12 03:07 28.34427 -80.71844 6544 ft 114 kts 346°
2026-04-12 03:07 28.35174 -80.72177 6532 ft 114 kts 345°
2026-04-12 03:07 28.35905 -80.72504 6533 ft 114 kts 345°
2026-04-12 03:08 28.36645 -80.72835 6539 ft 114 kts 345°
2026-04-12 03:08 28.37384 -80.73165 6539 ft 114 kts 345°
2026-04-12 03:08 28.38124 -80.73497 6538 ft 114 kts 346°
2026-04-12 03:08 28.38866 -80.73829 6538 ft 114 kts 345°
2026-04-12 03:09 28.39604 -80.74160 6538 ft 114 kts 345°
2026-04-12 03:09 28.40345 -80.74491 6538 ft 114 kts 345°
2026-04-12 03:09 28.41085 -80.74822 6538 ft 114 kts 345°
2026-04-12 03:09 28.41825 -80.75153 6538 ft 114 kts 345°
2026-04-12 03:10 28.42568 -80.75486 6536 ft 114 kts 345°
2026-04-12 03:10 28.43308 -80.75818 6537 ft 114 kts 346°
2026-04-12 03:10 28.44047 -80.76150 6545 ft 115 kts 345°
2026-04-12 03:10 28.44792 -80.76483 6546 ft 115 kts 345°
2026-04-12 03:11 28.45534 -80.76816 6545 ft 115 kts 345°
2026-04-12 03:11 28.46276 -80.77148 6549 ft 115 kts 345°
2026-04-12 03:11 28.47020 -80.77481 6547 ft 115 kts 345°
2026-04-12 03:11 28.47752 -80.77809 6548 ft 114 kts 345°
2026-04-12 03:12 28.48493 -80.78142 6548 ft 114 kts 345°
2026-04-12 03:12 28.49233 -80.78474 6547 ft 114 kts 345°
2026-04-12 03:12 28.49972 -80.78806 6547 ft 114 kts 345°
2026-04-12 03:12 28.50709 -80.79137 6546 ft 114 kts 345°
2026-04-12 03:13 28.51447 -80.79468 6547 ft 114 kts 345°
2026-04-12 03:13 28.52182 -80.79797 6547 ft 114 kts 345°
2026-04-12 03:13 28.52919 -80.80127 6546 ft 114 kts 345°
2026-04-12 03:13 28.53656 -80.80458 6545 ft 114 kts 345°
2026-04-12 03:14 28.54391 -80.80789 6545 ft 113 kts 346°
2026-04-12 03:14 28.55126 -80.81119 6545 ft 114 kts 346°
2026-04-12 03:14 28.55863 -80.81450 6546 ft 114 kts 345°
2026-04-12 03:14 28.56600 -80.81781 6547 ft 114 kts 345°
2026-04-12 03:15 28.57337 -80.82112 6548 ft 114 kts 345°
2026-04-12 03:15 28.58076 -80.82443 6547 ft 114 kts 346°
2026-04-12 03:15 28.58811 -80.82774 6546 ft 114 kts 346°
2026-04-12 03:15 28.59549 -80.83106 6548 ft 114 kts 346°
2026-04-12 03:16 28.60282 -80.83435 6552 ft 115 kts 345°
2026-04-12 03:16 28.61025 -80.83770 6551 ft 115 kts 345°
2026-04-12 03:16 28.61769 -80.84104 6550 ft 115 kts 345°
2026-04-12 03:16 28.62512 -80.84437 6551 ft 115 kts 345°
2026-04-12 03:17 28.63257 -80.84772 6550 ft 115 kts 345°
2026-04-12 03:17 28.63998 -80.85106 6548 ft 115 kts 346°
2026-04-12 03:17 28.64741 -80.85441 6550 ft 115 kts 346°
2026-04-12 03:17 28.65488 -80.85777 6544 ft 116 kts 345°
2026-04-12 03:18 28.66237 -80.86114 6546 ft 116 kts 345°
2026-04-12 03:18 28.66989 -80.86453 6547 ft 116 kts 345°
2026-04-12 03:18 28.67741 -80.86790 6546 ft 116 kts 345°
2026-04-12 03:18 28.68492 -80.87129 6549 ft 116 kts 345°
2026-04-12 03:19 28.69246 -80.87468 6551 ft 117 kts 345°
2026-04-12 03:19 28.70001 -80.87809 6552 ft 117 kts 345°
2026-04-12 03:19 28.70756 -80.88150 6553 ft 117 kts 345°
2026-04-12 03:19 28.71507 -80.88488 6553 ft 116 kts 345°
2026-04-12 03:20 28.72260 -80.88827 6551 ft 116 kts 345°
2026-04-12 03:20 28.73013 -80.89166 6551 ft 117 kts 345°
2026-04-12 03:20 28.73757 -80.89501 6548 ft 116 kts 345°
2026-04-12 03:20 28.74517 -80.89844 6549 ft 116 kts 345°
2026-04-12 03:21 28.75261 -80.90180 6553 ft 115 kts 345°
2026-04-12 03:21 28.76003 -80.90514 6547 ft 115 kts 345°
2026-04-12 03:21 28.76737 -80.90845 6549 ft 115 kts 345°
2026-04-12 03:21 28.77482 -80.91181 6552 ft 115 kts 344°
2026-04-12 03:22 28.78229 -80.91519 6553 ft 116 kts 344°
2026-04-12 03:22 28.78980 -80.91857 6552 ft 116 kts 344°
2026-04-12 03:22 28.79731 -80.92196 6552 ft 116 kts 344°
2026-04-12 03:22 28.80484 -80.92536 6558 ft 116 kts 344°
2026-04-12 03:23 28.81234 -80.92874 6559 ft 116 kts 344°
2026-04-12 03:23 28.81983 -80.93213 6558 ft 116 kts 344°
2026-04-12 03:23 28.82731 -80.93551 6563 ft 116 kts 344°
2026-04-12 03:23 28.83468 -80.93884 6564 ft 115 kts 344°
2026-04-12 03:24 28.84216 -80.94221 6565 ft 116 kts 344°
2026-04-12 03:24 28.84965 -80.94559 6564 ft 116 kts 344°
2026-04-12 03:24 28.85712 -80.94897 6564 ft 116 kts 344°
2026-04-12 03:24 28.86460 -80.95235 6565 ft 116 kts 344°
2026-04-12 03:25 28.87209 -80.95574 6568 ft 116 kts 344°
2026-04-12 03:25 28.87958 -80.95913 6569 ft 116 kts 344°
2026-04-12 03:25 28.88707 -80.96252 6569 ft 116 kts 344°
2026-04-12 03:25 28.89458 -80.96590 6570 ft 116 kts 344°
2026-04-12 03:26 28.90206 -80.96929 6569 ft 116 kts 344°
2026-04-12 03:26 28.90954 -80.97267 6570 ft 116 kts 344°
2026-04-12 03:26 28.91703 -80.97606 6571 ft 116 kts 344°
2026-04-12 03:26 28.92453 -80.97946 6571 ft 116 kts 344°
2026-04-12 03:27 28.93202 -80.98285 6574 ft 116 kts 344°
2026-04-12 03:27 28.93952 -80.98625 6575 ft 116 kts 344°
2026-04-12 03:27 28.94701 -80.98963 6570 ft 116 kts 344°
2026-04-12 03:27 28.95450 -80.99303 6571 ft 116 kts 343°
2026-04-12 03:28 28.96198 -80.99641 6572 ft 116 kts 344°
2026-04-12 03:28 28.96949 -80.99981 6572 ft 116 kts 344°
2026-04-12 03:28 28.97697 -81.00320 6572 ft 116 kts 344°
2026-04-12 03:28 28.98446 -81.00660 6572 ft 116 kts 344°
2026-04-12 03:29 28.99187 -81.00996 6576 ft 116 kts 344°
2026-04-12 03:29 28.99937 -81.01336 6575 ft 116 kts 344°
2026-04-12 03:29 29.00687 -81.01675 6575 ft 116 kts 344°
2026-04-12 03:29 29.01438 -81.02015 6574 ft 116 kts 344°
2026-04-12 03:30 29.02188 -81.02355 6570 ft 116 kts 344°
2026-04-12 03:30 29.02937 -81.02696 6570 ft 116 kts 344°
2026-04-12 03:30 29.03688 -81.03036 6570 ft 116 kts 344°
2026-04-12 03:30 29.04440 -81.03378 6570 ft 116 kts 344°
2026-04-12 03:31 29.05191 -81.03718 6573 ft 116 kts 343°
2026-04-12 03:31 29.05942 -81.04059 6572 ft 116 kts 343°
2026-04-12 03:31 29.06692 -81.04399 6573 ft 116 kts 344°
2026-04-12 03:31 29.07441 -81.04739 6570 ft 116 kts 344°
2026-04-12 03:32 29.08190 -81.05079 6572 ft 116 kts 344°
2026-04-12 03:32 29.08939 -81.05420 6582 ft 116 kts 344°
2026-04-12 03:32 29.09685 -81.05759 6582 ft 116 kts 344°
2026-04-12 03:32 29.10433 -81.06098 6584 ft 116 kts 343°
2026-04-12 03:33 29.11181 -81.06437 6583 ft 116 kts 343°
2026-04-12 03:33 29.11927 -81.06776 6582 ft 116 kts 344°
2026-04-12 03:33 29.12676 -81.07116 6581 ft 115 kts 344°
2026-04-12 03:33 29.13412 -81.07451 6581 ft 115 kts 344°
2026-04-12 03:34 29.14159 -81.07791 6581 ft 115 kts 344°
2026-04-12 03:34 29.14904 -81.08130 6581 ft 115 kts 344°
2026-04-12 03:34 29.15649 -81.08469 6581 ft 115 kts 344°
2026-04-12 03:34 29.16394 -81.08808 6584 ft 115 kts 343°
2026-04-12 03:35 29.17140 -81.09146 6583 ft 115 kts 344°
2026-04-12 03:35 29.17885 -81.09485 6582 ft 115 kts 344°
2026-04-12 03:35 29.18630 -81.09824 6581 ft 115 kts 344°
2026-04-12 03:35 29.19375 -81.10163 6581 ft 115 kts 344°
2026-04-12 03:36 29.20121 -81.10504 6584 ft 115 kts 344°
2026-04-12 03:36 29.20869 -81.10844 6582 ft 116 kts 344°
2026-04-12 03:36 29.21617 -81.11184 6582 ft 116 kts 344°
2026-04-12 03:36 29.22367 -81.11525 6582 ft 116 kts 343°
2026-04-12 03:37 29.23119 -81.11867 6584 ft 116 kts 344°
2026-04-12 03:37 29.23860 -81.12205 6584 ft 116 kts 344°
2026-04-12 03:37 29.24610 -81.12547 6580 ft 116 kts 343°
2026-04-12 03:37 29.25358 -81.12889 6582 ft 116 kts 343°
2026-04-12 03:38 29.26105 -81.13229 6578 ft 115 kts 343°
2026-04-12 03:38 29.26839 -81.13570 6578 ft 114 kts 347°
2026-04-12 03:38 29.27584 -81.13895 6575 ft 115 kts 343°
2026-04-12 03:38 29.28329 -81.14239 6575 ft 115 kts 343°
2026-04-12 03:39 29.29071 -81.14579 6577 ft 115 kts 343°
2026-04-12 03:39 29.29818 -81.14920 6575 ft 115 kts 343°
2026-04-12 03:39 29.30553 -81.15256 6575 ft 115 kts 343°
2026-04-12 03:39 29.31295 -81.15595 6578 ft 115 kts 343°
2026-04-12 03:40 29.32038 -81.15935 6584 ft 115 kts 343°
2026-04-12 03:40 29.32784 -81.16275 6583 ft 115 kts 343°
2026-04-12 03:40 29.33528 -81.16614 6584 ft 115 kts 343°
2026-04-12 03:40 29.34271 -81.16953 6586 ft 115 kts 343°
2026-04-12 03:41 29.35014 -81.17292 6585 ft 115 kts 343°
2026-04-12 03:41 29.35756 -81.17631 6585 ft 115 kts 343°
2026-04-12 03:41 29.36497 -81.17970 6587 ft 114 kts 343°
2026-04-12 03:41 29.37236 -81.18308 6587 ft 114 kts 343°
2026-04-12 03:42 29.37976 -81.18646 6586 ft 114 kts 343°
2026-04-12 03:42 29.38716 -81.18984 6591 ft 114 kts 343°
2026-04-12 03:42 29.39454 -81.19321 6589 ft 114 kts 343°
2026-04-12 03:42 29.40193 -81.19658 6586 ft 114 kts 343°
2026-04-12 03:43 29.40932 -81.19996 6586 ft 114 kts 343°
2026-04-12 03:43 29.41673 -81.20335 6589 ft 114 kts 343°
2026-04-12 03:43 29.42403 -81.20669 6587 ft 114 kts 343°
2026-04-12 03:43 29.43143 -81.21008 6586 ft 115 kts 343°
2026-04-12 03:44 29.43884 -81.21347 6589 ft 115 kts 343°
2026-04-12 03:44 29.44626 -81.21686 6587 ft 115 kts 343°
2026-04-12 03:44 29.45367 -81.22025 6587 ft 115 kts 343°
2026-04-12 03:44 29.45870 -81.22255 6589 ft 115 kts 343°
2026-04-12 03:45 29.46603 -81.22591 6589 ft 115 kts 343°
2026-04-12 03:45 29.47345 -81.22931 6588 ft 115 kts 343°
2026-04-12 03:45 29.48089 -81.23271 6588 ft 115 kts 343°
2026-04-12 03:45 29.48834 -81.23612 6590 ft 115 kts 343°
2026-04-12 03:46 29.49577 -81.23952 6588 ft 115 kts 343°
2026-04-12 03:46 29.50324 -81.24294 6592 ft 115 kts 343°
2026-04-12 03:46 29.51070 -81.24636 6587 ft 115 kts 343°
2026-04-12 03:46 29.51813 -81.24977 6590 ft 115 kts 343°
2026-04-12 03:47 29.52558 -81.25318 6588 ft 115 kts 343°
2026-04-12 03:47 29.53302 -81.25660 6568 ft 115 kts 343°
2026-04-12 03:47 29.54045 -81.26000 6564 ft 115 kts 343°
2026-04-12 03:47 29.54786 -81.26339 6566 ft 115 kts 343°
2026-04-12 03:48 29.55526 -81.26678 6564 ft 114 kts 343°
2026-04-12 03:48 29.56265 -81.27018 6566 ft 114 kts 343°
2026-04-12 03:48 29.57001 -81.27356 6565 ft 114 kts 343°
2026-04-12 03:48 29.57738 -81.27694 6563 ft 114 kts 343°
2026-04-12 03:49 29.58475 -81.28032 6564 ft 114 kts 343°
2026-04-12 03:49 29.59212 -81.28370 6563 ft 114 kts 344°
2026-04-12 03:49 29.59950 -81.28708 6565 ft 114 kts 344°
2026-04-12 03:49 29.60690 -81.29048 6564 ft 114 kts 344°
2026-04-12 03:50 29.61429 -81.29387 6567 ft 114 kts 344°
2026-04-12 03:50 29.62168 -81.29727 6566 ft 114 kts 344°
2026-04-12 03:50 29.62907 -81.30067 6568 ft 114 kts 344°
2026-04-12 03:50 29.63648 -81.30407 6570 ft 114 kts 344°
2026-04-12 03:51 29.64386 -81.30746 6570 ft 114 kts 344°
2026-04-12 03:51 29.65126 -81.31086 6571 ft 114 kts 344°
2026-04-12 03:51 29.65847 -81.31443 6571 ft 116 kts 335°
2026-04-12 03:51 29.66462 -81.32007 6581 ft 110 kts 344°
2026-04-12 03:52 29.67234 -81.32285 6372 ft 118 kts 351°
2026-04-12 03:52 29.68018 -81.32385 6441 ft 108 kts
2026-04-12 03:52 29.68732 -81.32547 6504 ft 104 kts 352°
2026-04-12 03:52 29.69408 -81.32774 6550 ft 102 kts 347°
2026-04-12 03:53 29.70073 -81.33167 6533 ft 105 kts 341°
2026-04-12 03:53 29.70708 -81.33534 6591 ft 105 kts 340°
2026-04-12 03:53 29.71369 -81.33917 6594 ft 107 kts 339°
2026-04-12 03:53 29.72029 -81.34300 6592 ft 105 kts 340°
2026-04-12 03:54 29.72671 -81.34672 6589 ft 104 kts 340°
2026-04-12 03:54 29.73314 -81.35046 6586 ft 103 kts 340°
2026-04-12 03:54 29.73951 -81.35418 6585 ft 102 kts 340°
2026-04-12 03:54 29.74583 -81.35787 6584 ft 101 kts 340°
2026-04-12 03:55 29.75219 -81.36159 6586 ft 101 kts 340°
2026-04-12 03:55 29.75836 -81.36521 6586 ft 101 kts 340°
2026-04-12 03:55 29.76465 -81.36892 6585 ft 100 kts 340°
2026-04-12 03:55 29.77084 -81.37257 6584 ft 100 kts 340°
2026-04-12 03:56 29.77693 -81.37615 6583 ft 99 kts 340°
2026-04-12 03:56 29.78319 -81.37931 6584 ft 97 kts 348°
2026-04-12 03:56 29.78956 -81.38201 6583 ft 97 kts 347°
2026-04-12 03:56 29.79585 -81.38475 6585 ft 97 kts 346°
2026-04-12 03:57 29.80213 -81.38753 6589 ft 96 kts 346°
2026-04-12 03:57 29.80835 -81.39030 6588 ft 96 kts 346°
2026-04-12 03:57 29.81458 -81.39309 6589 ft 96 kts 346°
2026-04-12 03:57 29.82083 -81.39590 6591 ft 96 kts 346°
2026-04-12 03:58 29.82709 -81.39872 6596 ft 96 kts 346°
2026-04-12 03:58 29.83333 -81.40154 6593 ft 96 kts 346°
2026-04-12 03:58 29.83958 -81.40436 6590 ft 97 kts 346°
2026-04-12 03:58 29.84586 -81.40720 6593 ft 97 kts 346°
2026-04-12 03:59 29.85216 -81.41004 6595 ft 98 kts 346°
2026-04-12 03:59 29.85841 -81.41286 6594 ft 98 kts 346°
2026-04-12 03:59 29.86475 -81.41572 6595 ft 98 kts 346°
2026-04-12 03:59 29.87111 -81.41858 6596 ft 98 kts 346°
2026-04-12 04:00 29.87749 -81.42146 6594 ft 99 kts 346°
2026-04-12 04:00 29.88388 -81.42435 6595 ft 99 kts 346°
2026-04-12 04:00 29.89029 -81.42725 6599 ft 99 kts 346°
2026-04-12 04:00 29.89672 -81.43015 6598 ft 99 kts 346°
2026-04-12 04:01 29.90315 -81.43306 6602 ft 99 kts 346°
2026-04-12 04:01 29.90958 -81.43596 6600 ft 99 kts 346°
2026-04-12 04:01 29.91601 -81.43887 6602 ft 99 kts 346°
2026-04-12 04:01 29.92246 -81.44177 6602 ft 100 kts 346°
2026-04-12 04:02 29.92893 -81.44470 6604 ft 100 kts 346°
2026-04-12 04:02 29.94186 -81.45055 6594 ft 100 kts 346°
2026-04-12 04:02 29.94833 -81.45348 6596 ft 100 kts 346°
2026-04-12 04:03 29.95480 -81.45641 6595 ft 100 kts 346°
2026-04-12 04:03 29.96129 -81.45934 6595 ft 100 kts 346°
2026-04-12 04:03 29.96782 -81.46229 6599 ft 104 kts 346°
2026-04-12 04:03 29.97465 -81.46538 6599 ft 107 kts 346°
2026-04-12 04:04 29.98166 -81.46855 6600 ft 110 kts 345°
2026-04-12 04:04 29.98899 -81.47187 6597 ft 113 kts 345°
2026-04-12 04:04 29.99638 -81.47522 6598 ft 115 kts 345°
2026-04-12 04:04 30.00376 -81.47856 6597 ft 116 kts 345°
2026-04-12 04:05 30.01131 -81.48198 6597 ft 117 kts 345°
2026-04-12 04:05 30.01890 -81.48542 6595 ft 117 kts 345°
2026-04-12 04:05 30.02650 -81.48887 6595 ft 118 kts 345°
2026-04-12 04:05 30.03412 -81.49231 6594 ft 118 kts 345°
2026-04-12 04:06 30.04175 -81.49577 6594 ft 118 kts 345°
2026-04-12 04:06 30.04939 -81.49922 6594 ft 118 kts 345°
2026-04-12 04:06 30.05702 -81.50268 6593 ft 118 kts 345°
2026-04-12 04:06 30.06467 -81.50615 6592 ft 118 kts 345°
2026-04-12 04:07 30.07230 -81.50961 6592 ft 118 kts 345°
2026-04-12 04:07 30.07994 -81.51308 6591 ft 118 kts 345°
2026-04-12 04:07 30.08758 -81.51654 6591 ft 118 kts 345°
2026-04-12 04:07 30.09522 -81.52000 6590 ft 118 kts 345°
2026-04-12 04:08 30.10279 -81.52343 6589 ft 118 kts 345°
2026-04-12 04:08 30.11041 -81.52689 6588 ft 118 kts 345°
2026-04-12 04:08 30.11806 -81.53036 6588 ft 118 kts 345°
2026-04-12 04:08 30.12569 -81.53383 6576 ft 118 kts 345°
2026-04-12 04:09 30.13331 -81.53729 6574 ft 117 kts 345°
2026-04-12 04:09 30.14090 -81.54074 6573 ft 117 kts 345°
2026-04-12 04:09 30.14848 -81.54417 6571 ft 117 kts 345°
2026-04-12 04:09 30.15606 -81.54762 6571 ft 117 kts 345°
2026-04-12 04:10 30.16363 -81.55106 6573 ft 117 kts 345°
2026-04-12 04:10 30.17119 -81.55449 6571 ft 117 kts 345°
2026-04-12 04:10 30.17875 -81.55793 6571 ft 117 kts 345°
2026-04-12 04:10 30.18631 -81.56136 6569 ft 117 kts 345°
2026-04-12 04:11 30.19378 -81.56475 6594 ft 117 kts 345°
2026-04-12 04:11 30.20136 -81.56820 6595 ft 117 kts 345°
2026-04-12 04:11 30.20807 -81.57127 6576 ft 101 kts 346°
2026-04-12 04:11 30.21406 -81.57398 6570 ft 85 kts 348°
2026-04-12 04:12 30.21917 -81.57626 6501 ft 80 kts 349°
2026-04-12 04:12 30.22564 -81.57925 6261 ft 113 kts 345°
2026-04-12 04:12 30.23310 -81.58264 6262 ft 114 kts 345°
2026-04-12 04:12 30.24091 -81.58618 6070 ft 129 kts 345°
2026-04-12 04:13 30.24952 -81.59009 5865 ft 136 kts 345°
2026-04-12 04:13 30.25844 -81.59416 5651 ft 138 kts 345°
2026-04-12 04:13 30.26750 -81.59786 5448 ft 137 kts 352°
2026-04-12 04:13 30.27677 -81.60042 5242 ft 136 kts 355°
2026-04-12 04:14 30.28596 -81.60067 5034 ft 133 kts
2026-04-12 04:14 30.29519 -81.60023 4821 ft 133 kts
2026-04-12 04:14 30.30444 -81.59964 4612 ft 132 kts 15°
2026-04-12 04:14 30.31143 -81.59417 4594 ft 118 kts 48°
2026-04-12 04:15 30.31698 -81.58752 4575 ft 106 kts 48°
2026-04-12 04:15 30.32160 -81.58194 4525 ft 91 kts 47°
2026-04-12 04:15 30.32611 -81.57659 4568 ft 96 kts 48°
2026-04-12 04:15 30.33089 -81.57088 4547 ft 104 kts 48°
2026-04-12 04:16 30.33628 -81.56442 4400 ft 116 kts 48°
2026-04-12 04:16 30.34201 -81.55751 4281 ft 121 kts 48°
2026-04-12 04:16 30.34791 -81.55045 4067 ft 128 kts 48°
2026-04-12 04:16 30.35442 -81.54299 3674 ft 128 kts 38°
2026-04-12 04:17 30.36189 -81.53858 3304 ft 118 kts 32°
2026-04-12 04:17 30.37005 -81.53626 2927 ft 132 kts 353°
2026-04-12 04:17 30.37867 -81.54082 2567 ft 138 kts 334°
2026-04-12 04:17 30.38593 -81.54821 2203 ft 143 kts 307°
2026-04-12 04:18 30.39209 -81.55734 1850 ft 144 kts 308°
2026-04-12 04:18 30.39807 -81.56664 1583 ft 141 kts 303°
2026-04-12 04:18 30.40328 -81.57555 1571 ft 128 kts 305°
2026-04-12 04:18 30.40804 -81.58343 1559 ft 109 kts 309°
2026-04-12 04:19 30.41241 -81.59019 1491 ft 108 kts 308°
2026-04-12 04:19 30.41710 -81.59737 1478 ft 109 kts 308°
2026-04-12 04:19 30.42132 -81.60421 1445 ft 105 kts 309°
2026-04-12 04:19 30.42581 -81.61093 1344 ft 103 kts 309°
2026-04-12 04:20 30.43029 -81.61740 1285 ft 102 kts 313°
2026-04-12 04:20 30.43490 -81.62376 1190 ft 105 kts 311°
2026-04-12 04:20 30.43967 -81.63029 1020 ft 105 kts 313°
2026-04-12 04:20 30.44433 -81.63659 911 ft 102 kts 313°
2026-04-12 04:21 30.44882 -81.64288 801 ft 100 kts 311°
2026-04-12 04:21 30.45338 -81.64886 665 ft 98 kts 313°
2026-04-12 04:21 30.45793 -81.65467 542 ft 98 kts 312°
2026-04-12 04:21 30.46231 -81.66057 471 ft 94 kts 311°
2026-04-12 04:22 30.46618 -81.66601 468 ft 82 kts 312°
2026-04-12 04:22 30.47025 -81.67127 353 ft 89 kts 313°
2026-04-12 04:22 30.47422 -81.67655 199 ft 86 kts 311°
2026-04-12 04:22 30.47788 -81.68148 69 ft 77 kts 310°
2026-04-12 04:23 30.48101 -81.68567 28 ft 58 kts 313°
2026-04-12 04:23 30.48310 -81.68851 32 ft 37 kts 311°
2026-04-12 04:23 30.48460 -81.69052 29 ft 29 kts 310°
2026-04-12 04:23 30.48571 -81.69211 28 ft 22 kts 306°
2026-04-12 04:24 30.48655 -81.69331 27 ft 18 kts 311°
2026-04-12 04:24 30.48752 -81.69398 29 ft 13 kts 342°
2026-04-12 04:24 30.48823 -81.69407 30 ft 8 kts
2026-04-12 04:24 30.48871 -81.69390 31 ft 8 kts 24°
2026-04-12 04:25 30.48913 -81.69337 31 ft 11 kts 62°
2026-04-12 04:25 30.48968 -81.69253 32 ft 14 kts 56°
2026-04-12 04:25 30.49033 -81.69161 33 ft 17 kts 52°
2026-04-12 04:25 30.49108 -81.69042 33 ft 19 kts 72°
2026-04-12 04:26 30.49069 -81.68917 33 ft 14 kts 118°
2026-04-12 04:26 30.49025 -81.68810 32 ft 16 kts 108°
2026-04-12 04:26 30.49002 -81.68721 33 ft 7 kts 99°
2026-04-12 04:26 30.48999 -81.68690 34 ft 0 kts 101°